Regional Weather Roundup
Issued by NWS

Home | Current Version | Previous Version | Graphics & Text | Print | Product List | Glossary On
Versions: 1 2 3 4 5 6 7 8 9 10 11 12 13 14 15 16 17 18 19 20 21 22 23 24 25 26 27 28 29 30 31 32 33 34 35 36 37 38 39 40 41 42 43 44 45 46 47 48 49 50
000
ASUS43 KBIS 222310
RWRND

NORTH DAKOTA REGIONAL WEATHER ROUNDUP
NATIONAL WEATHER SERVICE BISMARCK ND
500 PM CST WED NOV 22 2017

NOTE: "FAIR" INDICATES FEW OR NO CLOUDS BELOW 12,000 FEET WITH NO
SIGNIFICANT WEATHER AND/OR OBSTRUCTIONS TO VISIBILITY.


NDZ001>003-009>011-017-230000-
NORTHWEST NORTH DAKOTA

CITY           SKY/WX    TMP DP  RH WIND       PRES   REMARKS
WILLISTON      CLEAR     40  28  62 N5        29.96R
MINOT          CLEAR     32  23  69 N8        29.91R
MINOT AFB      CLEAR     31  22  70 N12       29.90R
$$

NDZ018>021-031>035-040>046-230000-
SOUTHWEST NORTH DAKOTA

CITY           SKY/WX    TMP DP  RH WIND       PRES   REMARKS
BISMARCK       CLEAR     56  38  50 N13       29.89R
DICKINSON      CLEAR     52  37  56 NW17      29.91R
GARRISON         N/A     36  31  82 N8        29.90R
HETTINGER ARPT CLOUDY    59  38  45 NW16      29.96R
$$

NDZ004>008-012>016-024-026-027-054-230000-
NORTHEAST NORTH DAKOTA

CITY           SKY/WX    TMP DP  RH WIND       PRES   REMARKS
GRAND FORKS    CLOUDY    28  19  69 S6        29.93R
GRND FRKS AFB  CLOUDY    28  19  69 S6        29.92R
DEVILS LAKE    CLOUDY    30  23  75 N9        29.90R
$$

NDZ022-023-025-028>030-036>039-047>053-230000-
SOUTHEAST NORTH DAKOTA

CITY           SKY/WX    TMP DP  RH WIND       PRES   REMARKS
FARGO          CLEAR     30  16  56 S13       29.91R WCI  20
JAMESTOWN      CLEAR     40  27  59 NW9       29.85R
$$





USA.gov is the U.S. government's official web portal to all federal, state and local government web resources and services.